Regional Weather Roundup
Issued by NWS

Home | Current Version | Previous Version | Graphics & Text | Print | Product List | Glossary On
Versions: 1 2 3 4 5 6 7 8 9 10 11 12 13 14 15 16 17 18 19 20 21 22 23 24 25 26 27 28 29 30 31 32 33 34 35 36 37 38 39 40 41 42 43 44 45 46 47 48 49 50
202
ASUS44 KMEG 060410
RWRTN
TENNESSEE HOURLY STATE WEATHER ROUNDUP
NATIONAL WEATHER SERVICE MEMPHIS TN
1000 PM CST MON DEC 05 2016

TNZ002-004-019-021-049-052-054-088>092-060500-
WEST TENNESSEE

CITY           SKY/WX    TMP DP  RH WIND       PRES   REMARKS
MEMPHIS INTL   LGT RAIN  47  47 100 E3        29.73S FOG
NWS MEMPHIS      N/A     46 N/A N/A MISG        N/A
JACKSON        CLOUDY    47  45  93 E7        29.75F
DYERSBURG      CLOUDY   N/A N/A N/A E7        29.75F
UNION CITY     CLOUDY    43  41  93 NE7       29.75F
PARIS          CLOUDY    41  39  93 E7        29.76F
HUNTINGDON     CLOUDY    45  43  93 E8        29.74F FOG
LEXINGTON      CLOUDY    45  45 100 N5        29.72F
$$

TNZ008-025-027-028-033-062-065-066-060500-
NORTH MIDDLE TENNESSEE

CITY           SKY/WX    TMP DP  RH WIND       PRES   REMARKS
NASHVILLE      CLOUDY    48  45  89 N3        29.80S
PORTLAND       CLOUDY    46  43  87 E6        29.79F
CLARKSVILLE    CLOUDY    44  40  85 E7        29.78F FOG
SMYRNA         CLOUDY    48  47  96 N5        29.80F
CROSSVILLE     CLOUDY    47  46  97 VRB6      29.79F
$$

TNZ061-075-076-078-094-096-097-060500-
SOUTH MIDDLE TENNESSEE

CITY           SKY/WX    TMP DP  RH WIND       PRES   REMARKS
FAYETTEVILLE   CLOUDY    52  52 100 E5        29.78S
TULLAHOMA      MOCLDY    48  48 100 CALM      29.80R
WINCHESTER     CLOUDY    54  52  94 SE13      29.77F
MCMINNVILLE    MOCLDY    50  50 100 CALM      29.79R
COLUMBIA       CLOUDY   N/A N/A N/A NE5       29.72F
SHELBYVILLE    CLOUDY    52  52 100 CALM      29.78F
$$

TNZ017-018-042-046-047-060500-
NORTHEAST TENNESSEE

CITY           SKY/WX    TMP DP  RH WIND       PRES   REMARKS
TRI CITIES     CLOUDY    48  45  89 E6        29.89F
ELIZABETHTON   DRIZZLE   52  46  82 E12G24    29.91F
$$

TNZ012-013-036-069-073-074-060500-
CENTRAL EAST TENNESSEE

CITY           SKY/WX    TMP DP  RH WIND       PRES   REMARKS
KNOXVILLE      CLOUDY    49  45  86 NE9       29.83F
OAK RIDGE      CLOUDY    51  45  79 NE5       29.86F
DOWNTOWN KNOXV MOCLDY    50  48  93 CALM      29.85F
GATLINBURG     PTCLDY    46  46 100 CALM      29.85R
MORRISTOWN     CLOUDY    48  46  93 E8        29.84S
JACKSBORO      MOCLDY    48  46  93 CALM      29.89F
$$

TNZ083-085-099-060500-
SOUTHEAST TENNESSEE

CITY           SKY/WX    TMP DP  RH WIND       PRES   REMARKS
CHATTANOOGA    LGT RAIN  51  48  89 N6        29.83F FOG
$$

SKY/WX REPORTED AS FAIR MEANS FEW OR NO CLOUDS BELOW
12 THOUSAND FEET.





USA.gov is the U.S. government's official web portal to all federal, state and local government web resources and services.